Index of /20260505/WXO-DD/model_rdps/10km/18/034
Name Last modified Size Description
Parent Directory -
20260505T18Z_MSC_RDPS_AbsoluteVorticity_IsbL-0250_RLatLon0.09_PT034H.grib2 2026-05-05 20:49 588K
20260505T18Z_MSC_RDPS_AbsoluteVorticity_IsbL-0500_RLatLon0.09_PT034H.grib2 2026-05-05 20:49 546K
20260505T18Z_MSC_RDPS_AbsoluteVorticity_IsbL-0700_RLatLon0.09_PT034H.grib2 2026-05-05 20:49 609K
20260505T18Z_MSC_RDPS_AbsoluteVorticity_IsbL-0850_RLatLon0.09_PT034H.grib2 2026-05-05 20:49 779K
20260505T18Z_MSC_RDPS_AirTemp_AGL-120m_RLatLon0.09_PT034H.grib2 2026-05-05 20:49 368K
20260505T18Z_MSC_RDPS_AirTemp_AGL-2m_RLatLon0.09_PT034H.grib2 2026-05-05 20:49 620K
20260505T18Z_MSC_RDPS_AirTemp_AGL-40m_RLatLon0.09_PT034H.grib2 2026-05-05 20:49 384K
20260505T18Z_MSC_RDPS_AirTemp_AGL-80m_RLatLon0.09_PT034H.grib2 2026-05-05 20:49 373K
20260505T18Z_MSC_RDPS_AirTemp_IsbL-0001_RLatLon0.09_PT034H.grib2 2026-05-05 20:49 299K
20260505T18Z_MSC_RDPS_AirTemp_IsbL-0005_RLatLon0.09_PT034H.grib2 2026-05-05 20:49 285K
20260505T18Z_MSC_RDPS_AirTemp_IsbL-0010_RLatLon0.09_PT034H.grib2 2026-05-05 20:49 387K
20260505T18Z_MSC_RDPS_AirTemp_IsbL-0020_RLatLon0.09_PT034H.grib2 2026-05-05 20:49 317K
20260505T18Z_MSC_RDPS_AirTemp_IsbL-0030_RLatLon0.09_PT034H.grib2 2026-05-05 20:49 333K
20260505T18Z_MSC_RDPS_AirTemp_IsbL-0050_RLatLon0.09_PT034H.grib2 2026-05-05 20:49 309K
20260505T18Z_MSC_RDPS_AirTemp_IsbL-0100_RLatLon0.09_PT034H.grib2 2026-05-05 20:49 419K
20260505T18Z_MSC_RDPS_AirTemp_IsbL-0150_RLatLon0.09_PT034H.grib2 2026-05-05 20:49 405K
20260505T18Z_MSC_RDPS_AirTemp_IsbL-0175_RLatLon0.09_PT034H.grib2 2026-05-05 20:49 399K
20260505T18Z_MSC_RDPS_AirTemp_IsbL-0200_RLatLon0.09_PT034H.grib2 2026-05-05 20:49 407K
20260505T18Z_MSC_RDPS_AirTemp_IsbL-0225_RLatLon0.09_PT034H.grib2 2026-05-05 20:49 409K
20260505T18Z_MSC_RDPS_AirTemp_IsbL-0250_RLatLon0.09_PT034H.grib2 2026-05-05 20:49 417K
20260505T18Z_MSC_RDPS_AirTemp_IsbL-0275_RLatLon0.09_PT034H.grib2 2026-05-05 20:49 396K
20260505T18Z_MSC_RDPS_AirTemp_IsbL-0300_RLatLon0.09_PT034H.grib2 2026-05-05 20:49 404K
20260505T18Z_MSC_RDPS_AirTemp_IsbL-0350_RLatLon0.09_PT034H.grib2 2026-05-05 20:49 419K
20260505T18Z_MSC_RDPS_AirTemp_IsbL-0400_RLatLon0.09_PT034H.grib2 2026-05-05 20:49 422K
20260505T18Z_MSC_RDPS_AirTemp_IsbL-0450_RLatLon0.09_PT034H.grib2 2026-05-05 20:49 430K
20260505T18Z_MSC_RDPS_AirTemp_IsbL-0500_RLatLon0.09_PT034H.grib2 2026-05-05 20:49 404K
20260505T18Z_MSC_RDPS_AirTemp_IsbL-0550_RLatLon0.09_PT034H.grib2 2026-05-05 20:49 418K
20260505T18Z_MSC_RDPS_AirTemp_IsbL-0600_RLatLon0.09_PT034H.grib2 2026-05-05 20:49 435K
20260505T18Z_MSC_RDPS_AirTemp_IsbL-0650_RLatLon0.09_PT034H.grib2 2026-05-05 20:49 451K
20260505T18Z_MSC_RDPS_AirTemp_IsbL-0700_RLatLon0.09_PT034H.grib2 2026-05-05 20:49 475K
20260505T18Z_MSC_RDPS_AirTemp_IsbL-0750_RLatLon0.09_PT034H.grib2 2026-05-05 20:49 514K
20260505T18Z_MSC_RDPS_AirTemp_IsbL-0800_RLatLon0.09_PT034H.grib2 2026-05-05 20:49 448K
20260505T18Z_MSC_RDPS_AirTemp_IsbL-0850_RLatLon0.09_PT034H.grib2 2026-05-05 20:49 495K
20260505T18Z_MSC_RDPS_AirTemp_IsbL-0875_RLatLon0.09_PT034H.grib2 2026-05-05 20:49 513K
20260505T18Z_MSC_RDPS_AirTemp_IsbL-0900_RLatLon0.09_PT034H.grib2 2026-05-05 20:49 520K
20260505T18Z_MSC_RDPS_AirTemp_IsbL-0925_RLatLon0.09_PT034H.grib2 2026-05-05 20:49 519K
20260505T18Z_MSC_RDPS_AirTemp_IsbL-0950_RLatLon0.09_PT034H.grib2 2026-05-05 20:49 514K
20260505T18Z_MSC_RDPS_AirTemp_IsbL-0970_RLatLon0.09_PT034H.grib2 2026-05-05 20:49 509K
20260505T18Z_MSC_RDPS_AirTemp_IsbL-0985_RLatLon0.09_PT034H.grib2 2026-05-05 20:49 498K
20260505T18Z_MSC_RDPS_AirTemp_IsbL-1000_RLatLon0.09_PT034H.grib2 2026-05-05 20:49 478K
20260505T18Z_MSC_RDPS_AirTemp_IsbL-1015_RLatLon0.09_PT034H.grib2 2026-05-05 20:49 479K
20260505T18Z_MSC_RDPS_Albedo_Sfc_RLatLon0.09_PT034H.grib2 2026-05-05 20:49 157K
20260505T18Z_MSC_RDPS_CAPE_Sfc_RLatLon0.09_PT034H.grib2 2026-05-05 20:49 1.7M
20260505T18Z_MSC_RDPS_CIN_Sfc_RLatLon0.09_PT034H.grib2 2026-05-05 20:49 1.2M
20260505T18Z_MSC_RDPS_CloudWater_EAtm_RLatLon0.09_PT034H.grib2 2026-05-05 20:49 221K
20260505T18Z_MSC_RDPS_ConvectivePrecip-Accum_Sfc_RLatLon0.09_PT034H.grib2 2026-05-05 20:49 902K
20260505T18Z_MSC_RDPS_DewPointDepression_AGL-2m_RLatLon0.09_PT034H.grib2 2026-05-05 20:49 399K
20260505T18Z_MSC_RDPS_DewPointDepression_IsbL-0001_RLatLon0.09_PT034H.grib2 2026-05-05 20:49 193
20260505T18Z_MSC_RDPS_DewPointDepression_IsbL-0005_RLatLon0.09_PT034H.grib2 2026-05-05 20:49 193
20260505T18Z_MSC_RDPS_DewPointDepression_IsbL-0010_RLatLon0.09_PT034H.grib2 2026-05-05 20:49 193
20260505T18Z_MSC_RDPS_DewPointDepression_IsbL-0020_RLatLon0.09_PT034H.grib2 2026-05-05 20:49 193
20260505T18Z_MSC_RDPS_DewPointDepression_IsbL-0030_RLatLon0.09_PT034H.grib2 2026-05-05 20:49 193
20260505T18Z_MSC_RDPS_DewPointDepression_IsbL-0050_RLatLon0.09_PT034H.grib2 2026-05-05 20:49 80K
20260505T18Z_MSC_RDPS_DewPointDepression_IsbL-0100_RLatLon0.09_PT034H.grib2 2026-05-05 20:49 113K
20260505T18Z_MSC_RDPS_DewPointDepression_IsbL-0150_RLatLon0.09_PT034H.grib2 2026-05-05 20:49 136K
20260505T18Z_MSC_RDPS_DewPointDepression_IsbL-0175_RLatLon0.09_PT034H.grib2 2026-05-05 20:49 176K
20260505T18Z_MSC_RDPS_DewPointDepression_IsbL-0200_RLatLon0.09_PT034H.grib2 2026-05-05 20:49 215K
20260505T18Z_MSC_RDPS_DewPointDepression_IsbL-0225_RLatLon0.09_PT034H.grib2 2026-05-05 20:49 245K
20260505T18Z_MSC_RDPS_DewPointDepression_IsbL-0250_RLatLon0.09_PT034H.grib2 2026-05-05 20:49 290K
20260505T18Z_MSC_RDPS_DewPointDepression_IsbL-0275_RLatLon0.09_PT034H.grib2 2026-05-05 20:49 303K
20260505T18Z_MSC_RDPS_DewPointDepression_IsbL-0300_RLatLon0.09_PT034H.grib2 2026-05-05 20:49 322K
20260505T18Z_MSC_RDPS_DewPointDepression_IsbL-0350_RLatLon0.09_PT034H.grib2 2026-05-05 20:49 328K
20260505T18Z_MSC_RDPS_DewPointDepression_IsbL-0400_RLatLon0.09_PT034H.grib2 2026-05-05 20:49 339K
20260505T18Z_MSC_RDPS_DewPointDepression_IsbL-0450_RLatLon0.09_PT034H.grib2 2026-05-05 20:49 345K
20260505T18Z_MSC_RDPS_DewPointDepression_IsbL-0500_RLatLon0.09_PT034H.grib2 2026-05-05 20:49 346K
20260505T18Z_MSC_RDPS_DewPointDepression_IsbL-0550_RLatLon0.09_PT034H.grib2 2026-05-05 20:49 356K
20260505T18Z_MSC_RDPS_DewPointDepression_IsbL-0600_RLatLon0.09_PT034H.grib2 2026-05-05 20:49 363K
20260505T18Z_MSC_RDPS_DewPointDepression_IsbL-0650_RLatLon0.09_PT034H.grib2 2026-05-05 20:49 365K
20260505T18Z_MSC_RDPS_DewPointDepression_IsbL-0700_RLatLon0.09_PT034H.grib2 2026-05-05 20:49 374K
20260505T18Z_MSC_RDPS_DewPointDepression_IsbL-0750_RLatLon0.09_PT034H.grib2 2026-05-05 20:49 397K
20260505T18Z_MSC_RDPS_DewPointDepression_IsbL-0800_RLatLon0.09_PT034H.grib2 2026-05-05 20:49 440K
20260505T18Z_MSC_RDPS_DewPointDepression_IsbL-0850_RLatLon0.09_PT034H.grib2 2026-05-05 20:49 471K
20260505T18Z_MSC_RDPS_DewPointDepression_IsbL-0875_RLatLon0.09_PT034H.grib2 2026-05-05 20:49 472K
20260505T18Z_MSC_RDPS_DewPointDepression_IsbL-0900_RLatLon0.09_PT034H.grib2 2026-05-05 20:49 463K
20260505T18Z_MSC_RDPS_DewPointDepression_IsbL-0925_RLatLon0.09_PT034H.grib2 2026-05-05 20:49 454K
20260505T18Z_MSC_RDPS_DewPointDepression_IsbL-0950_RLatLon0.09_PT034H.grib2 2026-05-05 20:49 443K
20260505T18Z_MSC_RDPS_DewPointDepression_IsbL-0970_RLatLon0.09_PT034H.grib2 2026-05-05 20:49 433K
20260505T18Z_MSC_RDPS_DewPointDepression_IsbL-0985_RLatLon0.09_PT034H.grib2 2026-05-05 20:49 430K
20260505T18Z_MSC_RDPS_DewPointDepression_IsbL-1000_RLatLon0.09_PT034H.grib2 2026-05-05 20:49 424K
20260505T18Z_MSC_RDPS_DewPointDepression_IsbL-1015_RLatLon0.09_PT034H.grib2 2026-05-05 20:49 414K
20260505T18Z_MSC_RDPS_DewPoint_AGL-2m_RLatLon0.09_PT034H.grib2 2026-05-05 20:49 304K
20260505T18Z_MSC_RDPS_DownwardLongwaveRadiationFlux-Accum_Sfc_RLatLon0.09_PT034H.grib2 2026-05-05 20:49 491K
20260505T18Z_MSC_RDPS_DownwardShortwaveRadiationFlux-Accum_NTAtm_RLatLon0.09_PT034H.grib2 2026-05-05 20:49 87K
20260505T18Z_MSC_RDPS_DownwardShortwaveRadiationFlux-Accum_Sfc_RLatLon0.09_PT034H.grib2 2026-05-05 20:49 524K
20260505T18Z_MSC_RDPS_FreezingRain-Accum1h_Sfc_RLatLon0.09_PT034H.grib2 2026-05-05 20:49 32K
20260505T18Z_MSC_RDPS_FreezingRain-Accum_Sfc_RLatLon0.09_PT034H.grib2 2026-05-05 20:49 127K
20260505T18Z_MSC_RDPS_GeopotentialHeight_IsbL-0001_RLatLon0.09_PT034H.grib2 2026-05-05 20:49 307K
20260505T18Z_MSC_RDPS_GeopotentialHeight_IsbL-0005_RLatLon0.09_PT034H.grib2 2026-05-05 20:49 333K
20260505T18Z_MSC_RDPS_GeopotentialHeight_IsbL-0010_RLatLon0.09_PT034H.grib2 2026-05-05 20:49 334K
20260505T18Z_MSC_RDPS_GeopotentialHeight_IsbL-0020_RLatLon0.09_PT034H.grib2 2026-05-05 20:49 300K
20260505T18Z_MSC_RDPS_GeopotentialHeight_IsbL-0030_RLatLon0.09_PT034H.grib2 2026-05-05 20:49 302K
20260505T18Z_MSC_RDPS_GeopotentialHeight_IsbL-0050_RLatLon0.09_PT034H.grib2 2026-05-05 20:49 303K
20260505T18Z_MSC_RDPS_GeopotentialHeight_IsbL-0100_RLatLon0.09_PT034H.grib2 2026-05-05 20:49 283K
20260505T18Z_MSC_RDPS_GeopotentialHeight_IsbL-0150_RLatLon0.09_PT034H.grib2 2026-05-05 20:49 226K
20260505T18Z_MSC_RDPS_GeopotentialHeight_IsbL-0175_RLatLon0.09_PT034H.grib2 2026-05-05 20:49 229K
20260505T18Z_MSC_RDPS_GeopotentialHeight_IsbL-0200_RLatLon0.09_PT034H.grib2 2026-05-05 20:49 263K
20260505T18Z_MSC_RDPS_GeopotentialHeight_IsbL-0225_RLatLon0.09_PT034H.grib2 2026-05-05 20:49 264K
20260505T18Z_MSC_RDPS_GeopotentialHeight_IsbL-0250_RLatLon0.09_PT034H.grib2 2026-05-05 20:49 265K
20260505T18Z_MSC_RDPS_GeopotentialHeight_IsbL-0275_RLatLon0.09_PT034H.grib2 2026-05-05 20:49 265K
20260505T18Z_MSC_RDPS_GeopotentialHeight_IsbL-0300_RLatLon0.09_PT034H.grib2 2026-05-05 20:49 234K
20260505T18Z_MSC_RDPS_GeopotentialHeight_IsbL-0350_RLatLon0.09_PT034H.grib2 2026-05-05 20:49 231K
20260505T18Z_MSC_RDPS_GeopotentialHeight_IsbL-0400_RLatLon0.09_PT034H.grib2 2026-05-05 20:49 228K
20260505T18Z_MSC_RDPS_GeopotentialHeight_IsbL-0450_RLatLon0.09_PT034H.grib2 2026-05-05 20:49 294K
20260505T18Z_MSC_RDPS_GeopotentialHeight_IsbL-0500_RLatLon0.09_PT034H.grib2 2026-05-05 20:49 290K
20260505T18Z_MSC_RDPS_GeopotentialHeight_IsbL-0550_RLatLon0.09_PT034H.grib2 2026-05-05 20:49 286K
20260505T18Z_MSC_RDPS_GeopotentialHeight_IsbL-0600_RLatLon0.09_PT034H.grib2 2026-05-05 20:49 281K
20260505T18Z_MSC_RDPS_GeopotentialHeight_IsbL-0650_RLatLon0.09_PT034H.grib2 2026-05-05 20:49 253K
20260505T18Z_MSC_RDPS_GeopotentialHeight_IsbL-0700_RLatLon0.09_PT034H.grib2 2026-05-05 20:49 333K
20260505T18Z_MSC_RDPS_GeopotentialHeight_IsbL-0750_RLatLon0.09_PT034H.grib2 2026-05-05 20:49 335K
20260505T18Z_MSC_RDPS_GeopotentialHeight_IsbL-0800_RLatLon0.09_PT034H.grib2 2026-05-05 20:49 375K
20260505T18Z_MSC_RDPS_GeopotentialHeight_IsbL-0850_RLatLon0.09_PT034H.grib2 2026-05-05 20:49 384K
20260505T18Z_MSC_RDPS_GeopotentialHeight_IsbL-0875_RLatLon0.09_PT034H.grib2 2026-05-05 20:49 386K
20260505T18Z_MSC_RDPS_GeopotentialHeight_IsbL-0900_RLatLon0.09_PT034H.grib2 2026-05-05 20:49 390K
20260505T18Z_MSC_RDPS_GeopotentialHeight_IsbL-0925_RLatLon0.09_PT034H.grib2 2026-05-05 20:49 394K
20260505T18Z_MSC_RDPS_GeopotentialHeight_IsbL-0950_RLatLon0.09_PT034H.grib2 2026-05-05 20:49 396K
20260505T18Z_MSC_RDPS_GeopotentialHeight_IsbL-0970_RLatLon0.09_PT034H.grib2 2026-05-05 20:49 400K
20260505T18Z_MSC_RDPS_GeopotentialHeight_IsbL-0985_RLatLon0.09_PT034H.grib2 2026-05-05 20:49 375K
20260505T18Z_MSC_RDPS_GeopotentialHeight_IsbL-1000_RLatLon0.09_PT034H.grib2 2026-05-05 20:49 386K
20260505T18Z_MSC_RDPS_GeopotentialHeight_IsbL-1015_RLatLon0.09_PT034H.grib2 2026-05-05 20:49 400K
20260505T18Z_MSC_RDPS_HighLowPressure_MSL_RLatLon0.09_PT034H.json 2026-05-05 20:42 20K
20260505T18Z_MSC_RDPS_Humidex_Sfc_RLatLon0.09_PT034H.grib2 2026-05-05 20:49 2.4M
20260505T18Z_MSC_RDPS_IcePellets-Accum1h_Sfc_RLatLon0.09_PT034H.grib2 2026-05-05 20:49 4.5K
20260505T18Z_MSC_RDPS_IcePellets-Accum_Sfc_RLatLon0.09_PT034H.grib2 2026-05-05 20:49 24K
20260505T18Z_MSC_RDPS_KIndex_Sfc_RLatLon0.09_PT034H.grib2 2026-05-05 20:49 2.5M
20260505T18Z_MSC_RDPS_LatentHeatNetFlux_Sfc_RLatLon0.09_PT034H.grib2 2026-05-05 20:49 313K
20260505T18Z_MSC_RDPS_LiftedIndex-MU-VT_IsbL-0500_RLatLon0.09_PT034H.grib2 2026-05-05 20:49 2.4M
20260505T18Z_MSC_RDPS_NetLongwaveRadiationFlux-Accum_Sfc_RLatLon0.09_PT034H.grib2 2026-05-05 20:49 499K
20260505T18Z_MSC_RDPS_NetShortwaveRadiationFlux-Accum_Sfc_RLatLon0.09_PT034H.grib2 2026-05-05 20:49 519K
20260505T18Z_MSC_RDPS_PlanetaryBoundaryLayerHeight_Sfc_RLatLon0.09_PT034H.grib2 2026-05-05 20:49 1.1M
20260505T18Z_MSC_RDPS_Precip-Accum1h_Sfc_RLatLon0.09_PT034H.grib2 2026-05-05 20:49 1.2M
20260505T18Z_MSC_RDPS_Precip-Accum_Sfc_RLatLon0.09_PT034H.grib2 2026-05-05 20:49 1.9M
20260505T18Z_MSC_RDPS_PrecipRate_Sfc_RLatLon0.09_PT034H.grib2 2026-05-05 20:49 159K
20260505T18Z_MSC_RDPS_PrecipType-Instant_Sfc_RLatLon0.09_PT034H.grib2 2026-05-05 20:49 556K
20260505T18Z_MSC_RDPS_Pressure-Trend3h_Sfc_RLatLon0.09_PT034H.grib2 2026-05-05 20:49 1.2M
20260505T18Z_MSC_RDPS_Pressure_MSL_RLatLon0.09_PT034H.grib2 2026-05-05 20:49 288K
20260505T18Z_MSC_RDPS_Pressure_PVU-1.5_RLatLon0.09_PT034H.grib2 2026-05-05 20:49 2.5M
20260505T18Z_MSC_RDPS_Pressure_PVU-1_RLatLon0.09_PT034H.grib2 2026-05-05 20:49 2.4M
20260505T18Z_MSC_RDPS_Pressure_PVU-2_RLatLon0.09_PT034H.grib2 2026-05-05 20:49 2.4M
20260505T18Z_MSC_RDPS_Pressure_Sfc_RLatLon0.09_PT034H.grib2 2026-05-05 20:49 496K
20260505T18Z_MSC_RDPS_RadiativeTemp_Sfc_RLatLon0.09_PT034H.grib2 2026-05-05 20:49 299K
20260505T18Z_MSC_RDPS_Rain-Accum1h_Sfc_RLatLon0.09_PT034H.grib2 2026-05-05 20:49 597K
20260505T18Z_MSC_RDPS_Rain-Accum_Sfc_RLatLon0.09_PT034H.grib2 2026-05-05 20:49 1.6M
20260505T18Z_MSC_RDPS_RelativeHumidity_AGL-2m_RLatLon0.09_PT034H.grib2 2026-05-05 20:49 1.0M
20260505T18Z_MSC_RDPS_RelativeHumidity_IsbL-0010_RLatLon0.09_PT034H.grib2 2026-05-05 20:49 709K
20260505T18Z_MSC_RDPS_RelativeHumidity_IsbL-0020_RLatLon0.09_PT034H.grib2 2026-05-05 20:49 658K
20260505T18Z_MSC_RDPS_RelativeHumidity_IsbL-0030_RLatLon0.09_PT034H.grib2 2026-05-05 20:49 599K
20260505T18Z_MSC_RDPS_RelativeHumidity_IsbL-0050_RLatLon0.09_PT034H.grib2 2026-05-05 20:49 354K
20260505T18Z_MSC_RDPS_RelativeHumidity_IsbL-0100_RLatLon0.09_PT034H.grib2 2026-05-05 20:49 275K
20260505T18Z_MSC_RDPS_RelativeHumidity_IsbL-0150_RLatLon0.09_PT034H.grib2 2026-05-05 20:49 410K
20260505T18Z_MSC_RDPS_RelativeHumidity_IsbL-0175_RLatLon0.09_PT034H.grib2 2026-05-05 20:49 463K
20260505T18Z_MSC_RDPS_RelativeHumidity_IsbL-0200_RLatLon0.09_PT034H.grib2 2026-05-05 20:49 535K
20260505T18Z_MSC_RDPS_RelativeHumidity_IsbL-0225_RLatLon0.09_PT034H.grib2 2026-05-05 20:49 598K
20260505T18Z_MSC_RDPS_RelativeHumidity_IsbL-0250_RLatLon0.09_PT034H.grib2 2026-05-05 20:49 661K
20260505T18Z_MSC_RDPS_RelativeHumidity_IsbL-0275_RLatLon0.09_PT034H.grib2 2026-05-05 20:49 691K
20260505T18Z_MSC_RDPS_RelativeHumidity_IsbL-0300_RLatLon0.09_PT034H.grib2 2026-05-05 20:49 738K
20260505T18Z_MSC_RDPS_RelativeHumidity_IsbL-0350_RLatLon0.09_PT034H.grib2 2026-05-05 20:49 761K
20260505T18Z_MSC_RDPS_RelativeHumidity_IsbL-0400_RLatLon0.09_PT034H.grib2 2026-05-05 20:49 780K
20260505T18Z_MSC_RDPS_RelativeHumidity_IsbL-0450_RLatLon0.09_PT034H.grib2 2026-05-05 20:49 788K
20260505T18Z_MSC_RDPS_RelativeHumidity_IsbL-0500_RLatLon0.09_PT034H.grib2 2026-05-05 20:49 788K
20260505T18Z_MSC_RDPS_RelativeHumidity_IsbL-0550_RLatLon0.09_PT034H.grib2 2026-05-05 20:49 807K
20260505T18Z_MSC_RDPS_RelativeHumidity_IsbL-0600_RLatLon0.09_PT034H.grib2 2026-05-05 20:49 836K
20260505T18Z_MSC_RDPS_RelativeHumidity_IsbL-0650_RLatLon0.09_PT034H.grib2 2026-05-05 20:49 843K
20260505T18Z_MSC_RDPS_RelativeHumidity_IsbL-0700_RLatLon0.09_PT034H.grib2 2026-05-05 20:49 856K
20260505T18Z_MSC_RDPS_RelativeHumidity_IsbL-0750_RLatLon0.09_PT034H.grib2 2026-05-05 20:49 910K
20260505T18Z_MSC_RDPS_RelativeHumidity_IsbL-0800_RLatLon0.09_PT034H.grib2 2026-05-05 20:49 1.0M
20260505T18Z_MSC_RDPS_RelativeHumidity_IsbL-0850_RLatLon0.09_PT034H.grib2 2026-05-05 20:49 1.0M
20260505T18Z_MSC_RDPS_RelativeHumidity_IsbL-0875_RLatLon0.09_PT034H.grib2 2026-05-05 20:49 1.0M
20260505T18Z_MSC_RDPS_RelativeHumidity_IsbL-0900_RLatLon0.09_PT034H.grib2 2026-05-05 20:49 1.1M
20260505T18Z_MSC_RDPS_RelativeHumidity_IsbL-0925_RLatLon0.09_PT034H.grib2 2026-05-05 20:49 1.1M
20260505T18Z_MSC_RDPS_RelativeHumidity_IsbL-0950_RLatLon0.09_PT034H.grib2 2026-05-05 20:49 1.1M
20260505T18Z_MSC_RDPS_RelativeHumidity_IsbL-0970_RLatLon0.09_PT034H.grib2 2026-05-05 20:49 1.0M
20260505T18Z_MSC_RDPS_RelativeHumidity_IsbL-0985_RLatLon0.09_PT034H.grib2 2026-05-05 20:49 1.0M
20260505T18Z_MSC_RDPS_RelativeHumidity_IsbL-1000_RLatLon0.09_PT034H.grib2 2026-05-05 20:49 1.0M
20260505T18Z_MSC_RDPS_RelativeHumidity_IsbL-1015_RLatLon0.09_PT034H.grib2 2026-05-05 20:49 1.0M
20260505T18Z_MSC_RDPS_Runoff-Accum_Sfc_RLatLon0.09_PT034H.grib2 2026-05-05 20:49 66K
20260505T18Z_MSC_RDPS_SWEATIndex_Sfc_RLatLon0.09_PT034H.grib2 2026-05-05 20:49 2.4M
20260505T18Z_MSC_RDPS_SeeingIndex_EAtm_RLatLon0.09_PT034H.grib2 2026-05-05 20:49 1.0M
20260505T18Z_MSC_RDPS_SensibleHeatNetFlux_Sfc_RLatLon0.09_PT034H.grib2 2026-05-05 20:49 283K
20260505T18Z_MSC_RDPS_ShowalterIndex_IsbL-0500_RLatLon0.09_PT034H.grib2 2026-05-05 20:49 2.6M
20260505T18Z_MSC_RDPS_SkyTransparencyIndex_EAtm_RLatLon0.09_PT034H.grib2 2026-05-05 20:49 722K
20260505T18Z_MSC_RDPS_Snow-Accum1h_Sfc_RLatLon0.09_PT034H.grib2 2026-05-05 20:49 447K
20260505T18Z_MSC_RDPS_Snow-Accum_Sfc_RLatLon0.09_PT034H.grib2 2026-05-05 20:49 739K
20260505T18Z_MSC_RDPS_SnowDensity_Sfc_RLatLon0.09_PT034H.grib2 2026-05-05 20:49 174K
20260505T18Z_MSC_RDPS_SnowDepth_Sfc_RLatLon0.09_PT034H.grib2 2026-05-05 20:49 648K
20260505T18Z_MSC_RDPS_SoilTemp_DBS-0to10cm_RLatLon0.09_PT034H.grib2 2026-05-05 20:49 236K
20260505T18Z_MSC_RDPS_SoilTemp_Sfc_RLatLon0.09_PT034H.grib2 2026-05-05 20:49 276K
20260505T18Z_MSC_RDPS_SoilVolumetricIceContent_Sfc_RLatLon0.09_PT034H.grib2 2026-05-05 20:49 150K
20260505T18Z_MSC_RDPS_SoilVolumetricWaterContent_DBS-0to10cm_RLatLon0.09_PT034H.grib2 2026-05-05 20:49 282K
20260505T18Z_MSC_RDPS_SoilVolumetricWaterContent_DBS-0to1cm_RLatLon0.09_PT034H.grib2 2026-05-05 20:49 341K
20260505T18Z_MSC_RDPS_SpecificHumidity_AGL-120m_RLatLon0.09_PT034H.grib2 2026-05-05 20:49 487K
20260505T18Z_MSC_RDPS_SpecificHumidity_AGL-2m_RLatLon0.09_PT034H.grib2 2026-05-05 20:49 652K
20260505T18Z_MSC_RDPS_SpecificHumidity_AGL-40m_RLatLon0.09_PT034H.grib2 2026-05-05 20:49 494K
20260505T18Z_MSC_RDPS_SpecificHumidity_AGL-80m_RLatLon0.09_PT034H.grib2 2026-05-05 20:49 488K
20260505T18Z_MSC_RDPS_SpecificHumidity_IsbL-0001_RLatLon0.09_PT034H.grib2 2026-05-05 20:49 403K
20260505T18Z_MSC_RDPS_SpecificHumidity_IsbL-0005_RLatLon0.09_PT034H.grib2 2026-05-05 20:49 376K
20260505T18Z_MSC_RDPS_SpecificHumidity_IsbL-0010_RLatLon0.09_PT034H.grib2 2026-05-05 20:49 410K
20260505T18Z_MSC_RDPS_SpecificHumidity_IsbL-0020_RLatLon0.09_PT034H.grib2 2026-05-05 20:49 497K
20260505T18Z_MSC_RDPS_SpecificHumidity_IsbL-0030_RLatLon0.09_PT034H.grib2 2026-05-05 20:49 371K
20260505T18Z_MSC_RDPS_SpecificHumidity_IsbL-0050_RLatLon0.09_PT034H.grib2 2026-05-05 20:49 479K
20260505T18Z_MSC_RDPS_SpecificHumidity_IsbL-0100_RLatLon0.09_PT034H.grib2 2026-05-05 20:49 421K
20260505T18Z_MSC_RDPS_SpecificHumidity_IsbL-0150_RLatLon0.09_PT034H.grib2 2026-05-05 20:49 454K
20260505T18Z_MSC_RDPS_SpecificHumidity_IsbL-0175_RLatLon0.09_PT034H.grib2 2026-05-05 20:49 434K
20260505T18Z_MSC_RDPS_SpecificHumidity_IsbL-0200_RLatLon0.09_PT034H.grib2 2026-05-05 20:49 460K
20260505T18Z_MSC_RDPS_SpecificHumidity_IsbL-0225_RLatLon0.09_PT034H.grib2 2026-05-05 20:49 440K
20260505T18Z_MSC_RDPS_SpecificHumidity_IsbL-0250_RLatLon0.09_PT034H.grib2 2026-05-05 20:49 543K
20260505T18Z_MSC_RDPS_SpecificHumidity_IsbL-0275_RLatLon0.09_PT034H.grib2 2026-05-05 20:49 462K
20260505T18Z_MSC_RDPS_SpecificHumidity_IsbL-0300_RLatLon0.09_PT034H.grib2 2026-05-05 20:49 535K
20260505T18Z_MSC_RDPS_SpecificHumidity_IsbL-0350_RLatLon0.09_PT034H.grib2 2026-05-05 20:49 530K
20260505T18Z_MSC_RDPS_SpecificHumidity_IsbL-0400_RLatLon0.09_PT034H.grib2 2026-05-05 20:49 516K
20260505T18Z_MSC_RDPS_SpecificHumidity_IsbL-0450_RLatLon0.09_PT034H.grib2 2026-05-05 20:49 570K
20260505T18Z_MSC_RDPS_SpecificHumidity_IsbL-0500_RLatLon0.09_PT034H.grib2 2026-05-05 20:49 500K
20260505T18Z_MSC_RDPS_SpecificHumidity_IsbL-0550_RLatLon0.09_PT034H.grib2 2026-05-05 20:49 573K
20260505T18Z_MSC_RDPS_SpecificHumidity_IsbL-0600_RLatLon0.09_PT034H.grib2 2026-05-05 20:49 623K
20260505T18Z_MSC_RDPS_SpecificHumidity_IsbL-0650_RLatLon0.09_PT034H.grib2 2026-05-05 20:49 538K
20260505T18Z_MSC_RDPS_SpecificHumidity_IsbL-0700_RLatLon0.09_PT034H.grib2 2026-05-05 20:49 580K
20260505T18Z_MSC_RDPS_SpecificHumidity_IsbL-0750_RLatLon0.09_PT034H.grib2 2026-05-05 20:49 637K
20260505T18Z_MSC_RDPS_SpecificHumidity_IsbL-0800_RLatLon0.09_PT034H.grib2 2026-05-05 20:49 725K
20260505T18Z_MSC_RDPS_SpecificHumidity_IsbL-0850_RLatLon0.09_PT034H.grib2 2026-05-05 20:49 801K
20260505T18Z_MSC_RDPS_SpecificHumidity_IsbL-0875_RLatLon0.09_PT034H.grib2 2026-05-05 20:49 828K
20260505T18Z_MSC_RDPS_SpecificHumidity_IsbL-0900_RLatLon0.09_PT034H.grib2 2026-05-05 20:49 841K
20260505T18Z_MSC_RDPS_SpecificHumidity_IsbL-0925_RLatLon0.09_PT034H.grib2 2026-05-05 20:49 847K
20260505T18Z_MSC_RDPS_SpecificHumidity_IsbL-0950_RLatLon0.09_PT034H.grib2 2026-05-05 20:49 846K
20260505T18Z_MSC_RDPS_SpecificHumidity_IsbL-0970_RLatLon0.09_PT034H.grib2 2026-05-05 20:49 834K
20260505T18Z_MSC_RDPS_SpecificHumidity_IsbL-0985_RLatLon0.09_PT034H.grib2 2026-05-05 20:49 685K
20260505T18Z_MSC_RDPS_SpecificHumidity_IsbL-1000_RLatLon0.09_PT034H.grib2 2026-05-05 20:49 678K
20260505T18Z_MSC_RDPS_SpecificHumidity_IsbL-1015_RLatLon0.09_PT034H.grib2 2026-05-05 20:49 666K
20260505T18Z_MSC_RDPS_SpecificHumidity_Sfc_RLatLon0.09_PT034H.grib2 2026-05-05 20:49 313K
20260505T18Z_MSC_RDPS_StormRelativeHelicity_EtaL-10000_RLatLon0.09_PT034H.grib2 2026-05-05 20:49 1.1M
20260505T18Z_MSC_RDPS_StormSeverityIndex_EtaL-10000_RLatLon0.09_PT034H.grib2 2026-05-05 20:49 1.1M
20260505T18Z_MSC_RDPS_Thickness_IsbL-0850to0700_RLatLon0.09_PT034H.grib2 2026-05-05 20:49 172K
20260505T18Z_MSC_RDPS_Thickness_IsbL-1000to0500_RLatLon0.09_PT034H.grib2 2026-05-05 20:49 191K
20260505T18Z_MSC_RDPS_Thickness_IsbL-1000to0850_RLatLon0.09_PT034H.grib2 2026-05-05 20:49 255K
20260505T18Z_MSC_RDPS_TotalCloudCover_Sfc_RLatLon0.09_PT034H.grib2 2026-05-05 20:49 662K
20260505T18Z_MSC_RDPS_TotalTotalsIndex_Sfc_RLatLon0.09_PT034H.grib2 2026-05-05 20:49 2.4M
20260505T18Z_MSC_RDPS_UVIndex-ClearSky_Sfc_RLatLon0.09_PT034H.grib2 2026-05-05 20:49 87K
20260505T18Z_MSC_RDPS_UVIndex_Sfc_RLatLon0.09_PT034H.grib2 2026-05-05 20:49 213K
20260505T18Z_MSC_RDPS_UpwardLongwaveRadiationFlux_NTAtm_RLatLon0.09_PT034H.grib2 2026-05-05 20:49 480K
20260505T18Z_MSC_RDPS_UpwardShortwaveRadiationFlux_NTAtm_RLatLon0.09_PT034H.grib2 2026-05-05 20:49 171K
20260505T18Z_MSC_RDPS_VerticalVelocity_IsbL-0250_RLatLon0.09_PT034H.grib2 2026-05-05 20:49 541K
20260505T18Z_MSC_RDPS_VerticalVelocity_IsbL-0500_RLatLon0.09_PT034H.grib2 2026-05-05 20:49 536K
20260505T18Z_MSC_RDPS_VerticalVelocity_IsbL-0700_RLatLon0.09_PT034H.grib2 2026-05-05 20:49 583K
20260505T18Z_MSC_RDPS_VerticalVelocity_IsbL-0850_RLatLon0.09_PT034H.grib2 2026-05-05 20:49 826K
20260505T18Z_MSC_RDPS_VerticalWindShear_EtaL-6500_RLatLon0.09_PT034H.grib2 2026-05-05 20:49 1.1M
20260505T18Z_MSC_RDPS_WindChill_Sfc_RLatLon0.09_PT034H.grib2 2026-05-05 20:49 1.2M
20260505T18Z_MSC_RDPS_WindDir_AGL-10m_RLatLon0.09_PT034H.grib2 2026-05-05 20:49 952K
20260505T18Z_MSC_RDPS_WindDir_AGL-120m_RLatLon0.09_PT034H.grib2 2026-05-05 20:49 589K
20260505T18Z_MSC_RDPS_WindDir_AGL-40m_RLatLon0.09_PT034H.grib2 2026-05-05 20:49 622K
20260505T18Z_MSC_RDPS_WindDir_AGL-80m_RLatLon0.09_PT034H.grib2 2026-05-05 20:49 601K
20260505T18Z_MSC_RDPS_WindDir_IsbL-0001_RLatLon0.09_PT034H.grib2 2026-05-05 20:49 311K
20260505T18Z_MSC_RDPS_WindDir_IsbL-0005_RLatLon0.09_PT034H.grib2 2026-05-05 20:49 368K
20260505T18Z_MSC_RDPS_WindDir_IsbL-0010_RLatLon0.09_PT034H.grib2 2026-05-05 20:49 384K
20260505T18Z_MSC_RDPS_WindDir_IsbL-0020_RLatLon0.09_PT034H.grib2 2026-05-05 20:49 420K
20260505T18Z_MSC_RDPS_WindDir_IsbL-0030_RLatLon0.09_PT034H.grib2 2026-05-05 20:49 410K
20260505T18Z_MSC_RDPS_WindDir_IsbL-0050_RLatLon0.09_PT034H.grib2 2026-05-05 20:49 435K
20260505T18Z_MSC_RDPS_WindDir_IsbL-0100_RLatLon0.09_PT034H.grib2 2026-05-05 20:49 409K
20260505T18Z_MSC_RDPS_WindDir_IsbL-0150_RLatLon0.09_PT034H.grib2 2026-05-05 20:49 408K
20260505T18Z_MSC_RDPS_WindDir_IsbL-0175_RLatLon0.09_PT034H.grib2 2026-05-05 20:49 431K
20260505T18Z_MSC_RDPS_WindDir_IsbL-0200_RLatLon0.09_PT034H.grib2 2026-05-05 20:49 452K
20260505T18Z_MSC_RDPS_WindDir_IsbL-0225_RLatLon0.09_PT034H.grib2 2026-05-05 20:49 458K
20260505T18Z_MSC_RDPS_WindDir_IsbL-0250_RLatLon0.09_PT034H.grib2 2026-05-05 20:49 455K
20260505T18Z_MSC_RDPS_WindDir_IsbL-0275_RLatLon0.09_PT034H.grib2 2026-05-05 20:49 472K
20260505T18Z_MSC_RDPS_WindDir_IsbL-0300_RLatLon0.09_PT034H.grib2 2026-05-05 20:49 466K
20260505T18Z_MSC_RDPS_WindDir_IsbL-0350_RLatLon0.09_PT034H.grib2 2026-05-05 20:49 491K
20260505T18Z_MSC_RDPS_WindDir_IsbL-0400_RLatLon0.09_PT034H.grib2 2026-05-05 20:49 508K
20260505T18Z_MSC_RDPS_WindDir_IsbL-0450_RLatLon0.09_PT034H.grib2 2026-05-05 20:49 524K
20260505T18Z_MSC_RDPS_WindDir_IsbL-0500_RLatLon0.09_PT034H.grib2 2026-05-05 20:49 542K
20260505T18Z_MSC_RDPS_WindDir_IsbL-0550_RLatLon0.09_PT034H.grib2 2026-05-05 20:49 555K
20260505T18Z_MSC_RDPS_WindDir_IsbL-0600_RLatLon0.09_PT034H.grib2 2026-05-05 20:49 583K
20260505T18Z_MSC_RDPS_WindDir_IsbL-0650_RLatLon0.09_PT034H.grib2 2026-05-05 20:49 622K
20260505T18Z_MSC_RDPS_WindDir_IsbL-0700_RLatLon0.09_PT034H.grib2 2026-05-05 20:49 669K
20260505T18Z_MSC_RDPS_WindDir_IsbL-0750_RLatLon0.09_PT034H.grib2 2026-05-05 20:49 720K
20260505T18Z_MSC_RDPS_WindDir_IsbL-0800_RLatLon0.09_PT034H.grib2 2026-05-05 20:49 786K
20260505T18Z_MSC_RDPS_WindDir_IsbL-0850_RLatLon0.09_PT034H.grib2 2026-05-05 20:49 857K
20260505T18Z_MSC_RDPS_WindDir_IsbL-0875_RLatLon0.09_PT034H.grib2 2026-05-05 20:49 884K
20260505T18Z_MSC_RDPS_WindDir_IsbL-0900_RLatLon0.09_PT034H.grib2 2026-05-05 20:49 894K
20260505T18Z_MSC_RDPS_WindDir_IsbL-0925_RLatLon0.09_PT034H.grib2 2026-05-05 20:49 903K
20260505T18Z_MSC_RDPS_WindDir_IsbL-0950_RLatLon0.09_PT034H.grib2 2026-05-05 20:49 902K
20260505T18Z_MSC_RDPS_WindDir_IsbL-0970_RLatLon0.09_PT034H.grib2 2026-05-05 20:49 906K
20260505T18Z_MSC_RDPS_WindDir_IsbL-0985_RLatLon0.09_PT034H.grib2 2026-05-05 20:49 912K
20260505T18Z_MSC_RDPS_WindDir_IsbL-1000_RLatLon0.09_PT034H.grib2 2026-05-05 20:49 926K
20260505T18Z_MSC_RDPS_WindDir_IsbL-1015_RLatLon0.09_PT034H.grib2 2026-05-05 20:49 944K
20260505T18Z_MSC_RDPS_WindGust-Max_AGL-10m_RLatLon0.09_PT034H.grib2 2026-05-05 20:49 1.0M
20260505T18Z_MSC_RDPS_WindGust-Min_AGL-10m_RLatLon0.09_PT034H.grib2 2026-05-05 20:49 966K
20260505T18Z_MSC_RDPS_WindGust_AGL-10m_RLatLon0.09_PT034H.grib2 2026-05-05 20:49 1.0M
20260505T18Z_MSC_RDPS_WindSpeed_AGL-10m_RLatLon0.09_PT034H.grib2 2026-05-05 20:49 830K
20260505T18Z_MSC_RDPS_WindSpeed_AGL-120m_RLatLon0.09_PT034H.grib2 2026-05-05 20:49 533K
20260505T18Z_MSC_RDPS_WindSpeed_AGL-40m_RLatLon0.09_PT034H.grib2 2026-05-05 20:49 535K
20260505T18Z_MSC_RDPS_WindSpeed_AGL-80m_RLatLon0.09_PT034H.grib2 2026-05-05 20:49 534K
20260505T18Z_MSC_RDPS_WindSpeed_IsbL-0001_RLatLon0.09_PT034H.grib2 2026-05-05 20:49 254K
20260505T18Z_MSC_RDPS_WindSpeed_IsbL-0005_RLatLon0.09_PT034H.grib2 2026-05-05 20:49 382K
20260505T18Z_MSC_RDPS_WindSpeed_IsbL-0010_RLatLon0.09_PT034H.grib2 2026-05-05 20:49 398K
20260505T18Z_MSC_RDPS_WindSpeed_IsbL-0020_RLatLon0.09_PT034H.grib2 2026-05-05 20:49 324K
20260505T18Z_MSC_RDPS_WindSpeed_IsbL-0030_RLatLon0.09_PT034H.grib2 2026-05-05 20:49 317K
20260505T18Z_MSC_RDPS_WindSpeed_IsbL-0050_RLatLon0.09_PT034H.grib2 2026-05-05 20:49 347K
20260505T18Z_MSC_RDPS_WindSpeed_IsbL-0100_RLatLon0.09_PT034H.grib2 2026-05-05 20:49 433K
20260505T18Z_MSC_RDPS_WindSpeed_IsbL-0150_RLatLon0.09_PT034H.grib2 2026-05-05 20:49 397K
20260505T18Z_MSC_RDPS_WindSpeed_IsbL-0175_RLatLon0.09_PT034H.grib2 2026-05-05 20:49 420K
20260505T18Z_MSC_RDPS_WindSpeed_IsbL-0200_RLatLon0.09_PT034H.grib2 2026-05-05 20:49 437K
20260505T18Z_MSC_RDPS_WindSpeed_IsbL-0225_RLatLon0.09_PT034H.grib2 2026-05-05 20:49 438K
20260505T18Z_MSC_RDPS_WindSpeed_IsbL-0250_RLatLon0.09_PT034H.grib2 2026-05-05 20:49 439K
20260505T18Z_MSC_RDPS_WindSpeed_IsbL-0275_RLatLon0.09_PT034H.grib2 2026-05-05 20:49 456K
20260505T18Z_MSC_RDPS_WindSpeed_IsbL-0300_RLatLon0.09_PT034H.grib2 2026-05-05 20:49 456K
20260505T18Z_MSC_RDPS_WindSpeed_IsbL-0350_RLatLon0.09_PT034H.grib2 2026-05-05 20:49 470K
20260505T18Z_MSC_RDPS_WindSpeed_IsbL-0400_RLatLon0.09_PT034H.grib2 2026-05-05 20:49 455K
20260505T18Z_MSC_RDPS_WindSpeed_IsbL-0450_RLatLon0.09_PT034H.grib2 2026-05-05 20:49 456K
20260505T18Z_MSC_RDPS_WindSpeed_IsbL-0500_RLatLon0.09_PT034H.grib2 2026-05-05 20:49 456K
20260505T18Z_MSC_RDPS_WindSpeed_IsbL-0550_RLatLon0.09_PT034H.grib2 2026-05-05 20:49 457K
20260505T18Z_MSC_RDPS_WindSpeed_IsbL-0600_RLatLon0.09_PT034H.grib2 2026-05-05 20:49 581K
20260505T18Z_MSC_RDPS_WindSpeed_IsbL-0650_RLatLon0.09_PT034H.grib2 2026-05-05 20:49 603K
20260505T18Z_MSC_RDPS_WindSpeed_IsbL-0700_RLatLon0.09_PT034H.grib2 2026-05-05 20:49 628K
20260505T18Z_MSC_RDPS_WindSpeed_IsbL-0750_RLatLon0.09_PT034H.grib2 2026-05-05 20:49 703K
20260505T18Z_MSC_RDPS_WindSpeed_IsbL-0800_RLatLon0.09_PT034H.grib2 2026-05-05 20:49 709K
20260505T18Z_MSC_RDPS_WindSpeed_IsbL-0850_RLatLon0.09_PT034H.grib2 2026-05-05 20:49 814K
20260505T18Z_MSC_RDPS_WindSpeed_IsbL-0875_RLatLon0.09_PT034H.grib2 2026-05-05 20:49 836K
20260505T18Z_MSC_RDPS_WindSpeed_IsbL-0900_RLatLon0.09_PT034H.grib2 2026-05-05 20:49 850K
20260505T18Z_MSC_RDPS_WindSpeed_IsbL-0925_RLatLon0.09_PT034H.grib2 2026-05-05 20:49 862K
20260505T18Z_MSC_RDPS_WindSpeed_IsbL-0950_RLatLon0.09_PT034H.grib2 2026-05-05 20:49 864K
20260505T18Z_MSC_RDPS_WindSpeed_IsbL-0970_RLatLon0.09_PT034H.grib2 2026-05-05 20:49 858K
20260505T18Z_MSC_RDPS_WindSpeed_IsbL-0985_RLatLon0.09_PT034H.grib2 2026-05-05 20:49 849K
20260505T18Z_MSC_RDPS_WindSpeed_IsbL-1000_RLatLon0.09_PT034H.grib2 2026-05-05 20:49 841K
20260505T18Z_MSC_RDPS_WindSpeed_IsbL-1015_RLatLon0.09_PT034H.grib2 2026-05-05 20:49 830K
20260505T18Z_MSC_RDPS_WindU_AGL-10m_RLatLon0.09_PT034H.grib2 2026-05-05 20:49 428K
20260505T18Z_MSC_RDPS_WindU_AGL-120m_RLatLon0.09_PT034H.grib2 2026-05-05 20:49 530K
20260505T18Z_MSC_RDPS_WindU_AGL-40m_RLatLon0.09_PT034H.grib2 2026-05-05 20:49 534K
20260505T18Z_MSC_RDPS_WindU_AGL-80m_RLatLon0.09_PT034H.grib2 2026-05-05 20:49 532K
20260505T18Z_MSC_RDPS_WindU_IsbL-0001_RLatLon0.09_PT034H.grib2 2026-05-05 20:49 243K
20260505T18Z_MSC_RDPS_WindU_IsbL-0005_RLatLon0.09_PT034H.grib2 2026-05-05 20:49 284K
20260505T18Z_MSC_RDPS_WindU_IsbL-0010_RLatLon0.09_PT034H.grib2 2026-05-05 20:49 297K
20260505T18Z_MSC_RDPS_WindU_IsbL-0020_RLatLon0.09_PT034H.grib2 2026-05-05 20:49 315K
20260505T18Z_MSC_RDPS_WindU_IsbL-0030_RLatLon0.09_PT034H.grib2 2026-05-05 20:49 351K
20260505T18Z_MSC_RDPS_WindU_IsbL-0050_RLatLon0.09_PT034H.grib2 2026-05-05 20:49 377K
20260505T18Z_MSC_RDPS_WindU_IsbL-0100_RLatLon0.09_PT034H.grib2 2026-05-05 20:49 331K
20260505T18Z_MSC_RDPS_WindU_IsbL-0150_RLatLon0.09_PT034H.grib2 2026-05-05 20:49 391K
20260505T18Z_MSC_RDPS_WindU_IsbL-0175_RLatLon0.09_PT034H.grib2 2026-05-05 20:49 413K
20260505T18Z_MSC_RDPS_WindU_IsbL-0200_RLatLon0.09_PT034H.grib2 2026-05-05 20:49 333K
20260505T18Z_MSC_RDPS_WindU_IsbL-0225_RLatLon0.09_PT034H.grib2 2026-05-05 20:49 334K
20260505T18Z_MSC_RDPS_WindU_IsbL-0250_RLatLon0.09_PT034H.grib2 2026-05-05 20:49 333K
20260505T18Z_MSC_RDPS_WindU_IsbL-0275_RLatLon0.09_PT034H.grib2 2026-05-05 20:49 347K
20260505T18Z_MSC_RDPS_WindU_IsbL-0300_RLatLon0.09_PT034H.grib2 2026-05-05 20:49 345K
20260505T18Z_MSC_RDPS_WindU_IsbL-0350_RLatLon0.09_PT034H.grib2 2026-05-05 20:49 356K
20260505T18Z_MSC_RDPS_WindU_IsbL-0400_RLatLon0.09_PT034H.grib2 2026-05-05 20:49 461K
20260505T18Z_MSC_RDPS_WindU_IsbL-0450_RLatLon0.09_PT034H.grib2 2026-05-05 20:49 462K
20260505T18Z_MSC_RDPS_WindU_IsbL-0500_RLatLon0.09_PT034H.grib2 2026-05-05 20:49 462K
20260505T18Z_MSC_RDPS_WindU_IsbL-0550_RLatLon0.09_PT034H.grib2 2026-05-05 20:49 463K
20260505T18Z_MSC_RDPS_WindU_IsbL-0600_RLatLon0.09_PT034H.grib2 2026-05-05 20:49 471K
20260505T18Z_MSC_RDPS_WindU_IsbL-0650_RLatLon0.09_PT034H.grib2 2026-05-05 20:49 489K
20260505T18Z_MSC_RDPS_WindU_IsbL-0700_RLatLon0.09_PT034H.grib2 2026-05-05 20:49 512K
20260505T18Z_MSC_RDPS_WindU_IsbL-0750_RLatLon0.09_PT034H.grib2 2026-05-05 20:49 539K
20260505T18Z_MSC_RDPS_WindU_IsbL-0800_RLatLon0.09_PT034H.grib2 2026-05-05 20:49 581K
20260505T18Z_MSC_RDPS_WindU_IsbL-0850_RLatLon0.09_PT034H.grib2 2026-05-05 20:49 631K
20260505T18Z_MSC_RDPS_WindU_IsbL-0875_RLatLon0.09_PT034H.grib2 2026-05-05 20:49 649K
20260505T18Z_MSC_RDPS_WindU_IsbL-0900_RLatLon0.09_PT034H.grib2 2026-05-05 20:49 651K
20260505T18Z_MSC_RDPS_WindU_IsbL-0925_RLatLon0.09_PT034H.grib2 2026-05-05 20:49 660K
20260505T18Z_MSC_RDPS_WindU_IsbL-0950_RLatLon0.09_PT034H.grib2 2026-05-05 20:49 656K
20260505T18Z_MSC_RDPS_WindU_IsbL-0970_RLatLon0.09_PT034H.grib2 2026-05-05 20:49 652K
20260505T18Z_MSC_RDPS_WindU_IsbL-0985_RLatLon0.09_PT034H.grib2 2026-05-05 20:49 646K
20260505T18Z_MSC_RDPS_WindU_IsbL-1000_RLatLon0.09_PT034H.grib2 2026-05-05 20:49 778K
20260505T18Z_MSC_RDPS_WindU_IsbL-1015_RLatLon0.09_PT034H.grib2 2026-05-05 20:49 771K
20260505T18Z_MSC_RDPS_WindV_AGL-10m_RLatLon0.09_PT034H.grib2 2026-05-05 20:49 426K
20260505T18Z_MSC_RDPS_WindV_AGL-120m_RLatLon0.09_PT034H.grib2 2026-05-05 20:49 413K
20260505T18Z_MSC_RDPS_WindV_AGL-40m_RLatLon0.09_PT034H.grib2 2026-05-05 20:49 531K
20260505T18Z_MSC_RDPS_WindV_AGL-80m_RLatLon0.09_PT034H.grib2 2026-05-05 20:49 529K
20260505T18Z_MSC_RDPS_WindV_IsbL-0001_RLatLon0.09_PT034H.grib2 2026-05-05 20:49 295K
20260505T18Z_MSC_RDPS_WindV_IsbL-0005_RLatLon0.09_PT034H.grib2 2026-05-05 20:49 287K
20260505T18Z_MSC_RDPS_WindV_IsbL-0010_RLatLon0.09_PT034H.grib2 2026-05-05 20:49 298K
20260505T18Z_MSC_RDPS_WindV_IsbL-0020_RLatLon0.09_PT034H.grib2 2026-05-05 20:49 317K
20260505T18Z_MSC_RDPS_WindV_IsbL-0030_RLatLon0.09_PT034H.grib2 2026-05-05 20:49 313K
20260505T18Z_MSC_RDPS_WindV_IsbL-0050_RLatLon0.09_PT034H.grib2 2026-05-05 20:49 340K
20260505T18Z_MSC_RDPS_WindV_IsbL-0100_RLatLon0.09_PT034H.grib2 2026-05-05 20:49 422K
20260505T18Z_MSC_RDPS_WindV_IsbL-0150_RLatLon0.09_PT034H.grib2 2026-05-05 20:49 387K
20260505T18Z_MSC_RDPS_WindV_IsbL-0175_RLatLon0.09_PT034H.grib2 2026-05-05 20:49 411K
20260505T18Z_MSC_RDPS_WindV_IsbL-0200_RLatLon0.09_PT034H.grib2 2026-05-05 20:49 332K
20260505T18Z_MSC_RDPS_WindV_IsbL-0225_RLatLon0.09_PT034H.grib2 2026-05-05 20:49 333K
20260505T18Z_MSC_RDPS_WindV_IsbL-0250_RLatLon0.09_PT034H.grib2 2026-05-05 20:49 358K
20260505T18Z_MSC_RDPS_WindV_IsbL-0275_RLatLon0.09_PT034H.grib2 2026-05-05 20:49 371K
20260505T18Z_MSC_RDPS_WindV_IsbL-0300_RLatLon0.09_PT034H.grib2 2026-05-05 20:49 343K
20260505T18Z_MSC_RDPS_WindV_IsbL-0350_RLatLon0.09_PT034H.grib2 2026-05-05 20:49 355K
20260505T18Z_MSC_RDPS_WindV_IsbL-0400_RLatLon0.09_PT034H.grib2 2026-05-05 20:49 359K
20260505T18Z_MSC_RDPS_WindV_IsbL-0450_RLatLon0.09_PT034H.grib2 2026-05-05 20:49 461K
20260505T18Z_MSC_RDPS_WindV_IsbL-0500_RLatLon0.09_PT034H.grib2 2026-05-05 20:49 461K
20260505T18Z_MSC_RDPS_WindV_IsbL-0550_RLatLon0.09_PT034H.grib2 2026-05-05 20:49 461K
20260505T18Z_MSC_RDPS_WindV_IsbL-0600_RLatLon0.09_PT034H.grib2 2026-05-05 20:49 468K
20260505T18Z_MSC_RDPS_WindV_IsbL-0650_RLatLon0.09_PT034H.grib2 2026-05-05 20:49 487K
20260505T18Z_MSC_RDPS_WindV_IsbL-0700_RLatLon0.09_PT034H.grib2 2026-05-05 20:49 509K
20260505T18Z_MSC_RDPS_WindV_IsbL-0750_RLatLon0.09_PT034H.grib2 2026-05-05 20:49 521K
20260505T18Z_MSC_RDPS_WindV_IsbL-0800_RLatLon0.09_PT034H.grib2 2026-05-05 20:49 564K
20260505T18Z_MSC_RDPS_WindV_IsbL-0850_RLatLon0.09_PT034H.grib2 2026-05-05 20:49 616K
20260505T18Z_MSC_RDPS_WindV_IsbL-0875_RLatLon0.09_PT034H.grib2 2026-05-05 20:49 635K
20260505T18Z_MSC_RDPS_WindV_IsbL-0900_RLatLon0.09_PT034H.grib2 2026-05-05 20:49 647K
20260505T18Z_MSC_RDPS_WindV_IsbL-0925_RLatLon0.09_PT034H.grib2 2026-05-05 20:49 656K
20260505T18Z_MSC_RDPS_WindV_IsbL-0950_RLatLon0.09_PT034H.grib2 2026-05-05 20:49 655K
20260505T18Z_MSC_RDPS_WindV_IsbL-0970_RLatLon0.09_PT034H.grib2 2026-05-05 20:49 650K
20260505T18Z_MSC_RDPS_WindV_IsbL-0985_RLatLon0.09_PT034H.grib2 2026-05-05 20:49 643K
20260505T18Z_MSC_RDPS_WindV_IsbL-1000_RLatLon0.09_PT034H.grib2 2026-05-05 20:49 775K
20260505T18Z_MSC_RDPS_WindV_IsbL-1015_RLatLon0.09_PT034H.grib2 2026-05-05 20:49 767K